Find Starlink 30519

NORAD ID: 57985 Int'l Des: 2023-151 Owner: SPXS Country: US Constellation: starlink operational
LEOCIRCULAR

現在のビュー

3D地球を読み込み中...

About Starlink 30519

Starlink 30519 (NORAD 57985) is a starlink constellation satellite (v2 mini) launched Sep 30, 2023 by SPXS of US. It operates in LEO, CIRCULAR orbit with a mass of 730.00 kg.

Starlink 30519について

説明を読み込み中...

次回通過

Passes for default location (London). Set your location on the main map for personalized predictions.

高度履歴

Loading altitude history...

軌道要素

1 57985U 23151X 26168.94306351 .00000044 00000-0 11146-4 0 9995
2 57985 43.0027 144.6892 0001718 271.0213 89.0442 15.27576812150860
Epoch: Jun 17, 2026 • Age: 6 hours

現在のステータス

高度 483.2 km
速度 7.63 km/s
衛星直下点 -2.56°S, 2.42°W
打ち上げ日 Sep 30, 2023
運用期間 2.7 years
タイプ internet

技術仕様

分類 Payload
質量 730.00 kg
乾燥質量 700.00 kg
総質量 730.00 kg
長さ 0.30 m
直径 4.10 m
スパン 29.00 m
形状 Box + pan
製造者 SPXS
バスタイプ Starlink V2M
フェーズステータス In Orbit
所有者/国 SPXS/US

Most Searched